SAA342 FACT-FAOR

Flight info

Callsign SAA342
Flight time N/A
Altitude 39000
Route KODES UQ42 OKLOK UQ52 APLEN DCT EVESI/N0370F230 Z41 UNRAG Z2 NIBEX NIBEX1D
Aircraft A343/H-SDE2E3FGHIJ4J5M1RWXY/LB1D1

Departure

Time 2026-05-06 15:14
Airport Cape Town International Airport (FACT)

Arrival

Time N/A
Airport O.R. Tambo International Airport (FAOR)
Time Latitude Longitude Altitude Speed Heading
2026-05-06 14:36 -33.96708 18.59939 168 ft 0 kts 75°
2026-05-06 14:39 -33.96727 18.59940 168 ft 0 kts 75°
2026-05-06 14:39 -33.96708 18.59939 168 ft 0 kts 75°
2026-05-06 14:46 -33.96727 18.59940 168 ft 0 kts 75°
2026-05-06 14:46 -33.96728 18.59937 168 ft 0 kts 75°
2026-05-06 14:46 -33.96727 18.59940 168 ft 0 kts 75°
2026-05-06 14:47 -33.96762 18.59958 168 ft 0 kts 75°
2026-05-06 14:47 -33.96708 18.59939 168 ft 0 kts 75°
2026-05-06 15:07 -33.96708 18.59938 168 ft 1 kts 75°
2026-05-06 15:08 -33.96714 18.59909 168 ft 4 kts 75°
2026-05-06 15:08 -33.96721 18.59878 168 ft 4 kts 75°
2026-05-06 15:08 -33.96730 18.59850 168 ft 4 kts 33°
2026-05-06 15:08 -33.96744 18.59848 168 ft 4 kts 345°
2026-05-06 15:09 -33.96770 18.59857 168 ft 4 kts 345°
2026-05-06 15:09 -33.96777 18.59859 168 ft 0 kts 345°
2026-05-06 15:11 -33.96772 18.59858 168 ft 2 kts 345°
2026-05-06 15:11 -33.96720 18.59842 168 ft 13 kts 346°
2026-05-06 15:11 -33.96614 18.59808 168 ft 17 kts 346°
2026-05-06 15:12 -33.96488 18.59774 168 ft 19 kts 349°
2026-05-06 15:12 -33.96354 18.59744 168 ft 20 kts 349°
2026-05-06 15:12 -33.96213 18.59739 166 ft 20 kts 20°
2026-05-06 15:12 -33.96107 18.59856 164 ft 20 kts 47°
2026-05-06 15:13 -33.96028 18.59974 158 ft 15 kts 77°
2026-05-06 15:13 -33.96059 18.60032 158 ft 5 kts 162°
2026-05-06 15:13 -33.96140 18.60058 158 ft 35 kts 165°
2026-05-06 15:13 -33.96575 18.60196 163 ft 92 kts 166°
2026-05-06 15:14 -33.97348 18.60438 155 ft 138 kts 165°
2026-05-06 15:14 -33.98350 18.60728 573 ft 150 kts 163°
2026-05-06 15:14 -33.99416 18.60994 1087 ft 160 kts 167°
2026-05-06 15:14 -34.00546 18.61214 1648 ft 175 kts 168°
2026-05-06 15:15 -34.01863 18.61366 2084 ft 208 kts 180°
2026-05-06 15:15 -34.03289 18.60685 2805 ft 235 kts 212°
2026-05-06 15:15 -34.04368 18.59181 3546 ft 239 kts 230°
2026-05-06 15:15 -34.05245 18.57477 3932 ft 239 kts 233°
2026-05-06 15:16 -34.06090 18.55743 4028 ft 241 kts 233°
2026-05-06 15:16 -34.06937 18.53991 4026 ft 242 kts 233°
2026-05-06 15:16 -34.07792 18.52234 4030 ft 243 kts 233°
2026-05-06 15:16 -34.08722 18.50557 4029 ft 239 kts 220°
2026-05-06 15:17 -34.10090 18.49519 4033 ft 235 kts 193°
2026-05-06 15:17 -34.11702 18.49175 4029 ft 232 kts 178°
2026-05-06 15:17 -34.13314 18.49229 4030 ft 232 kts 174°
2026-05-06 15:17 -34.15006 18.49372 4010 ft 255 kts 173°
2026-05-06 15:18 -34.16808 18.49541 4008 ft 262 kts 173°
2026-05-06 15:18 -34.18607 18.49722 3688 ft 258 kts 173°
2026-05-06 15:18 -34.20404 18.49905 3216 ft 260 kts 173°
2026-05-06 15:18 -34.22197 18.50080 3021 ft 258 kts 173°
2026-05-06 15:19 -34.23989 18.50244 2999 ft 259 kts 173°
2026-05-06 15:19 -34.25781 18.50414 2999 ft 259 kts 173°
2026-05-06 15:19 -34.27580 18.50597 3005 ft 260 kts 173°
2026-05-06 15:19 -34.29367 18.50497 3003 ft 265 kts 190°
2026-05-06 15:20 -34.31058 18.49525 3000 ft 272 kts 214°
2026-05-06 15:20 -34.32233 18.47746 3009 ft 280 kts 237°
2026-05-06 15:20 -34.32899 18.45504 3001 ft 291 kts 257°
2026-05-06 15:20 -34.32850 18.43034 3013 ft 298 kts 278°
2026-05-06 15:21 -34.32053 18.40703 3016 ft 304 kts 299°
2026-05-06 15:21 -34.30728 18.38702 3019 ft 307 kts 315°
2026-05-06 15:21 -34.29196 18.36913 3014 ft 306 kts 315°
2026-05-06 15:21 -34.27492 18.35365 3018 ft 307 kts 330°
2026-05-06 15:22 -34.25615 18.34111 3013 ft 308 kts 333°
2026-05-06 15:22 -34.23749 18.32934 3015 ft 295 kts 333°
2026-05-06 15:22 -34.21964 18.31857 3018 ft 279 kts 339°
2026-05-06 15:22 -34.20146 18.31249 3018 ft 264 kts 352°
2026-05-06 15:23 -34.18338 18.31070 3015 ft 261 kts
2026-05-06 15:23 -34.16523 18.31050 3012 ft 261 kts
2026-05-06 15:23 -34.14771 18.31444 3008 ft 253 kts 30°
2026-05-06 15:23 -34.13284 18.32511 3003 ft 247 kts 38°
2026-05-06 15:24 -34.11665 18.33298 3009 ft 259 kts 12°
2026-05-06 15:24 -34.09863 18.33092 3016 ft 264 kts 343°
2026-05-06 15:24 -34.08172 18.32214 3007 ft 266 kts 334°
2026-05-06 15:24 -34.06516 18.31216 3004 ft 267 kts 333°
2026-05-06 15:25 -34.04861 18.30204 3002 ft 267 kts 333°
2026-05-06 15:25 -34.03176 18.29245 2997 ft 267 kts 342°
2026-05-06 15:25 -34.01372 18.29035 3001 ft 259 kts 14°
2026-05-06 15:25 -33.99764 18.29844 3005 ft 246 kts 43°
2026-05-06 15:26 -33.98481 18.31182 3004 ft 246 kts 47°
2026-05-06 15:26 -33.97142 18.32478 2999 ft 247 kts 44°
2026-05-06 15:26 -33.95776 18.33729 3000 ft 248 kts 43°
2026-05-06 15:26 -33.94396 18.34981 3000 ft 249 kts 43°
2026-05-06 15:27 -33.93016 18.36240 2999 ft 248 kts 43°
2026-05-06 15:27 -33.91645 18.37494 3001 ft 248 kts 43°
2026-05-06 15:27 -33.90272 18.38749 3003 ft 248 kts 44°
2026-05-06 15:27 -33.88937 18.40037 2998 ft 244 kts 49°
2026-05-06 15:28 -33.87725 18.41479 3147 ft 250 kts 52°
2026-05-06 15:28 -33.86492 18.43031 3643 ft 263 kts 52°
2026-05-06 15:28 -33.85216 18.44653 4603 ft 269 kts 51°
2026-05-06 15:28 -33.83790 18.46155 5602 ft 276 kts 45°
2026-05-06 15:29 -33.82272 18.47621 6543 ft 283 kts 43°
2026-05-06 15:29 -33.80695 18.49083 7432 ft 289 kts 41°
2026-05-06 15:29 -33.79069 18.50551 8344 ft 295 kts 40°
2026-05-06 15:29 -33.77405 18.52034 9238 ft 301 kts 40°
2026-05-06 15:30 -33.75709 18.53538 10119 ft 305 kts 40°
2026-05-06 15:30 -33.73955 18.55098 10597 ft 324 kts 39°
2026-05-06 15:30 -33.72089 18.56766 10935 ft 345 kts 39°
2026-05-06 15:30 -33.70123 18.58526 11350 ft 360 kts 39°
2026-05-06 15:31 -33.68088 18.60342 12019 ft 367 kts 39°
2026-05-06 15:31 -33.66023 18.62182 12734 ft 373 kts 39°
2026-05-06 15:31 -33.63951 18.64027 13461 ft 379 kts 39°
2026-05-06 15:32 -33.59668 18.67840 14857 ft 388 kts 39°
2026-05-06 15:32 -33.57498 18.69773 15595 ft 391 kts 38°
2026-05-06 15:32 -33.55301 18.71728 16322 ft 394 kts 38°
2026-05-06 15:32 -33.53091 18.73693 17063 ft 397 kts 38°
2026-05-06 15:33 -33.50864 18.75674 17792 ft 400 kts 38°
2026-05-06 15:33 -33.48622 18.77666 18491 ft 404 kts 37°
2026-05-06 15:33 -33.46362 18.79671 19224 ft 403 kts 37°
2026-05-06 15:33 -33.44102 18.81675 19874 ft 406 kts 37°
2026-05-06 15:34 -33.41823 18.83697 20433 ft 410 kts 37°
2026-05-06 15:34 -33.39522 18.85738 21008 ft 414 kts 37°
2026-05-06 15:34 -33.37196 18.87798 21601 ft 417 kts 37°
2026-05-06 15:34 -33.34852 18.89874 22166 ft 421 kts 37°
2026-05-06 15:35 -33.32492 18.91962 22731 ft 424 kts 36°
2026-05-06 15:35 -33.30112 18.94065 23280 ft 427 kts 36°
2026-05-06 15:35 -33.27715 18.96183 23807 ft 430 kts 36°
2026-05-06 15:35 -33.25301 18.98322 24266 ft 433 kts 36°
2026-05-06 15:36 -33.22883 19.00475 24722 ft 435 kts 37°
2026-05-06 15:36 -33.20445 19.02647 25170 ft 438 kts 37°
2026-05-06 15:36 -33.17997 19.04827 25639 ft 440 kts 37°
2026-05-06 15:36 -33.15541 19.07012 26105 ft 441 kts 37°
2026-05-06 15:37 -33.13079 19.09201 26551 ft 443 kts 37°
2026-05-06 15:37 -33.10597 19.11405 26983 ft 445 kts 37°
2026-05-06 15:37 -33.08109 19.13612 27369 ft 448 kts 38°
2026-05-06 15:37 -33.05595 19.15841 27687 ft 453 kts 38°
2026-05-06 15:38 -33.03058 19.18086 28180 ft 453 kts 39°
2026-05-06 15:38 -33.00530 19.20324 28646 ft 453 kts 38°
2026-05-06 15:38 -32.97998 19.22562 29093 ft 454 kts 39°
2026-05-06 15:38 -32.95458 19.24807 29498 ft 455 kts 38°
2026-05-06 15:39 -32.92902 19.27064 29707 ft 461 kts 38°
2026-05-06 15:39 -32.90308 19.29354 29962 ft 465 kts 38°
2026-05-06 15:39 -32.87701 19.31651 30322 ft 467 kts 38°
2026-05-06 15:39 -32.85088 19.33953 30602 ft 469 kts 38°
2026-05-06 15:40 -32.82471 19.36281 30879 ft 471 kts 40°
2026-05-06 15:40 -32.80075 19.38861 31147 ft 472 kts 47°
2026-05-06 15:40 -32.77813 19.41699 31388 ft 474 kts 49°
2026-05-06 15:40 -32.75595 19.44600 31655 ft 476 kts 50°
2026-05-06 15:41 -32.73391 19.47546 31947 ft 477 kts 50°
2026-05-06 15:41 -32.71202 19.50494 32337 ft 476 kts 50°
2026-05-06 15:41 -32.69013 19.53442 32679 ft 476 kts 50°
2026-05-06 15:41 -32.66824 19.56381 33005 ft 476 kts 50°
2026-05-06 15:42 -32.64630 19.59316 33323 ft 476 kts 50°
2026-05-06 15:42 -32.62425 19.62256 33544 ft 478 kts 50°
2026-05-06 15:42 -32.60205 19.65211 33774 ft 480 kts 50°
2026-05-06 15:42 -32.57984 19.68162 34117 ft 479 kts 50°
2026-05-06 15:43 -32.55764 19.71107 34387 ft 479 kts 50°
2026-05-06 15:43 -32.53542 19.74053 34604 ft 480 kts 50°
2026-05-06 15:43 -32.51307 19.77016 34826 ft 481 kts 50°
2026-05-06 15:43 -32.49071 19.79977 35051 ft 483 kts 50°
2026-05-06 15:44 -32.44565 19.85938 35323 ft 488 kts 50°
2026-05-06 15:44 -32.42294 19.88938 35549 ft 489 kts 49°
2026-05-06 15:44 -32.40021 19.91938 35762 ft 490 kts 49°
2026-05-06 15:45 -32.37744 19.94941 35973 ft 491 kts 49°
2026-05-06 15:45 -32.35459 19.97953 36175 ft 492 kts 49°
2026-05-06 15:45 -32.33173 20.00963 36386 ft 493 kts 49°
2026-05-06 15:45 -32.30877 20.03984 36574 ft 494 kts 49°
2026-05-06 15:46 -32.28579 20.07005 36782 ft 496 kts 49°
2026-05-06 15:46 -32.26269 20.10039 36968 ft 497 kts 49°
2026-05-06 15:46 -32.23953 20.13079 37161 ft 498 kts 49°
2026-05-06 15:46 -32.21633 20.16121 37331 ft 500 kts 49°
2026-05-06 15:47 -32.19299 20.19181 37491 ft 502 kts 49°
2026-05-06 15:47 -32.16961 20.22242 37661 ft 503 kts 49°
2026-05-06 15:47 -32.14615 20.25310 37871 ft 504 kts 49°
2026-05-06 15:47 -32.12263 20.28385 38043 ft 505 kts 49°
2026-05-06 15:48 -32.09911 20.31456 38213 ft 506 kts 49°
2026-05-06 15:48 -32.07550 20.34537 38374 ft 506 kts 49°
2026-05-06 15:48 -32.05185 20.37620 38550 ft 507 kts 49°
2026-05-06 15:48 -32.02817 20.40705 38726 ft 508 kts 49°
2026-05-06 15:49 -32.00440 20.43799 38870 ft 509 kts 49°
2026-05-06 15:49 -31.98067 20.46886 39010 ft 509 kts 48°
2026-05-06 15:49 -31.93292 20.53088 39061 ft 512 kts 48°
2026-05-06 15:50 -31.88519 20.59276 39061 ft 510 kts 48°
2026-05-06 15:50 -31.83743 20.65459 39047 ft 510 kts 48°
2026-05-06 15:51 -31.78967 20.71633 39046 ft 514 kts 48°
2026-05-06 15:51 -31.74109 20.77901 39032 ft 522 kts 48°
2026-05-06 15:52 -31.69171 20.84263 39039 ft 531 kts 47°
2026-05-06 15:52 -31.64187 20.90671 39017 ft 538 kts 47°
2026-05-06 15:53 -31.59138 20.97152 39025 ft 538 kts 47°
2026-05-06 15:53 -31.54090 21.03622 39017 ft 537 kts 47°
2026-05-06 15:54 -31.49048 21.10071 39017 ft 537 kts 47°
2026-05-06 15:54 -31.43997 21.16523 39018 ft 537 kts 47°
2026-05-06 15:55 -31.38950 21.22956 39016 ft 537 kts 47°
2026-05-06 15:55 -31.34717 21.28345 39004 ft 537 kts 47°
2026-05-06 15:56 -31.29664 21.34766 39005 ft 537 kts 47°
2026-05-06 15:56 -31.24637 21.41145 39003 ft 537 kts 47°
2026-05-06 15:57 -31.19569 21.47564 39004 ft 537 kts 47°
2026-05-06 15:57 -31.14501 21.53972 38995 ft 537 kts 47°
2026-05-06 15:58 -31.09424 21.60380 38996 ft 537 kts 47°
2026-05-06 15:58 -31.04347 21.66779 39000 ft 537 kts 47°
2026-05-06 15:59 -30.99268 21.73169 38981 ft 537 kts 47°
2026-05-06 15:59 -30.94178 21.79562 39001 ft 538 kts 46°
2026-05-06 16:00 -30.89072 21.85963 38994 ft 541 kts 46°
2026-05-06 16:00 -30.83937 21.92391 38993 ft 542 kts 46°
2026-05-06 16:01 -30.78798 21.98812 38983 ft 542 kts 46°
2026-05-06 16:01 -30.73924 22.05493 38983 ft 542 kts 52°
2026-05-06 16:02 -30.69318 22.12425 38973 ft 542 kts 52°
2026-05-06 16:02 -30.64744 22.19398 38955 ft 543 kts 52°
2026-05-06 16:03 -30.60157 22.26371 38964 ft 543 kts 52°
2026-05-06 16:03 -30.55562 22.33326 38963 ft 543 kts 52°
2026-05-06 16:04 -30.50966 22.40263 38963 ft 543 kts 51°
2026-05-06 16:04 -30.46359 22.47204 38965 ft 543 kts 51°
2026-05-06 16:05 -30.41753 22.54131 38957 ft 544 kts 51°
2026-05-06 16:05 -30.37125 22.61079 38945 ft 545 kts 51°
2026-05-06 16:06 -30.32476 22.68017 38922 ft 545 kts 51°
2026-05-06 16:06 -30.27835 22.74877 38922 ft 544 kts 50°
2026-05-06 16:07 -30.23136 22.81727 38978 ft 544 kts 50°
2026-05-06 16:07 -30.18393 22.88542 38971 ft 544 kts 49°
2026-05-06 16:08 -30.13602 22.95324 38914 ft 545 kts 49°
2026-05-06 16:08 -30.08763 23.02069 38927 ft 545 kts 48°
2026-05-06 16:09 -30.03894 23.08754 38976 ft 544 kts 48°
2026-05-06 16:09 -29.98954 23.15440 38971 ft 544 kts 47°
2026-05-06 16:10 -29.94007 23.22053 38900 ft 545 kts 47°
2026-05-06 16:10 -29.89057 23.28597 38888 ft 544 kts 46°
2026-05-06 16:11 -29.84063 23.35134 38973 ft 542 kts 46°
2026-05-06 16:11 -29.79057 23.41624 39009 ft 542 kts 46°
2026-05-06 16:12 -29.74005 23.48104 38918 ft 545 kts 45°
2026-05-06 16:12 -29.68905 23.54575 38876 ft 546 kts 45°
2026-05-06 16:13 -29.63792 23.61004 38944 ft 544 kts 45°
2026-05-06 16:13 -29.58667 23.67384 38963 ft 543 kts 44°
2026-05-06 16:14 -29.53545 23.73750 38959 ft 543 kts 44°